DW6282 Weather Reports


Display with metric or nautical units.
time (UTC)temp
F
wind
direction
speed
MPH
gust
MPH
rain 1hr
in
rain 24hr
in
rain mn
in
humidity
%
barometer
mb
20260506181517 83 162 0.0 6.0 0.00 0.00 0.00 85 1008.8
20260506180016 83 180 0.0 5.0 0.00 0.00 0.00 85 1008.8
20260506174517 83 207 2.0 5.0 0.00 0.00 0.00 85 1008.9
20260506173012 83 214 1.0 5.0 0.00 0.00 0.00 86 1009.1
20260506171512 82 208 2.0 5.0 0.00 0.00 0.00 85 1009.2
20260506170011 82 206 1.0 7.0 0.00 0.00 0.00 86 1009.3
20260506164514 83 201 2.0 5.0 0.00 0.00 0.00 85 1009.4
20260506163007 81 200 3.0 8.0 0.00 0.00 0.00 88 1009.1
20260506161503 80 200 1.0 4.0 0.00 0.00 0.00 90 1009.1
20260506160115 79 203 0.0 3.0 0.00 0.00 0.00 91 1009.2
20260506154557 79 217 2.0 5.0 0.00 0.00 0.00 91 1008.8
20260506153055 79 197 1.0 5.0 0.00 0.00 0.00 91 1008.7
20260506151554 79 211 1.0 5.0 0.00 0.00 0.00 92 1008.6
20260506150052 79 207 1.0 3.0 0.00 0.00 0.00 92 1008.3
20260506144552 78 203 1.0 3.0 0.00 0.00 0.00 93 1008.1
20260506143048 78 209 1.0 3.0 0.00 0.00 0.00 94 1008.2
20260506141547 78 214 0.0 4.0 0.00 0.00 0.00 93 1008.4
20260506140047 78 212 0.0 2.0 0.00 0.00 0.00 93 1008.4
20260506134548 78 199 0.0 2.0 0.00 0.00 0.00 94 1008.3
20260506133043 77 212 0.0 2.0 0.00 0.00 0.00 94 1008.5
20260506131556 77 200 1.0 4.0 0.00 0.00 0.00 94 1008.5
20260506130048 77 198 0.0 3.0 0.00 0.00 0.00 95 1008.5
20260506124539 77 209 0.0 3.0 0.00 0.00 0.00 94 1008.2
20260506123039 76 205 0.0 3.0 0.00 0.00 0.00 94 1008.2
20260506121538 76 204 1.0 3.0 0.00 0.00 0.00 95 1008.1
20260506120038 76 216 0.0 4.0 0.00 0.00 0.00 95 1007.8
20260506114537 76 203 0.0 2.0 0.00 0.00 0.00 95 1007.6
20260506113037 76 203 0.0 3.0 0.00 0.00 0.00 95 1007.5
20260506111536 76 208 0.0 2.0 0.00 0.00 0.00 96 1007.3
20260506110036 75 207 1.0 3.0 0.00 0.00 0.00 95 1007.3
20260506104535 75 203 0.0 3.0 0.00 0.00 0.00 95 1007.3
20260506103039 76 208 1.0 5.0 0.00 0.00 0.00 95 1007.3
20260506101533 76 209 0.0 2.0 0.00 0.00 0.00 95 1007.1
20260506100037 76 203 0.0 3.0 0.00 0.00 0.00 94 1007.0
20260506094543 76 214 0.0 3.0 0.00 0.00 0.00 94 1006.9
20260506093034 76 203 1.0 4.0 0.00 0.00 0.00 94 1007.1
20260506091531 76 214 0.0 3.0 0.00 0.00 0.00 95 1007.1
20260506090026 76 208 0.0 2.0 0.00 0.00 0.00 94 1007.1
20260506084525 76 200 0.0 5.0 0.00 0.00 0.00 94 1007.3
20260506083022 76 196 1.0 5.0 0.00 0.00 0.00 94 1007.3
20260506081524 76 214 1.0 4.0 0.00 0.00 0.00 94 1007.5
20260506073016 76 197 0.0 3.0 0.00 0.00 0.00 93 1008.0
20260506071515 76 200 0.0 4.0 0.00 0.00 0.00 93 1008.1
20260506061514 76 213 2.0 7.0 0.00 0.00 0.00 92 1007.9
20260506044501 77 134 3.0 8.0 0.00 0.00 0.00 92 1008.0
20260506043100 77 202 2.0 8.0 0.00 0.00 0.00 91 1007.9
20260506041600 77 212 2.0 7.0 0.00 0.00 0.00 91 1007.9
20260506040100 77 204 2.0 5.0 0.00 0.00 0.00 91 1008.0
20260506034600 77 196 3.0 8.0 0.00 0.00 0.00 92 1008.0
20260506033058 77 186 2.0 10.0 0.00 0.00 0.00 92 1007.9
20260506031559 77 221 2.0 10.0 0.00 0.00 0.00 92 1007.8
20260506030058 77 206 3.0 7.0 0.00 0.00 0.00 91 1007.7
20260506024601 77 185 2.0 6.0 0.00 0.00 0.00 92 1007.5
20260506023100 77 165 2.0 8.0 0.00 0.00 0.00 92 1007.3
20260506021555 76 212 1.0 5.0 0.00 0.00 0.00 92 1007.0
20260506020055 76 198 2.0 5.0 0.00 0.00 0.00 92 1006.8
20260506014554 77 203 1.0 6.0 0.00 0.00 0.00 91 1006.7
20260506013053 77 209 2.0 7.0 0.00 0.00 0.00 91 1006.5
20260506011552 77 162 2.0 6.0 0.00 0.00 0.00 90 1006.2
20260506010052 78 174 3.0 8.0 0.00 0.00 0.00 89 1006.1
20260506004552 78 210 3.0 8.0 0.00 0.00 0.00 89 1006.0
20260506003050 78 200 3.0 9.0 0.00 0.00 0.00 88 1005.9
20260506001551 78 191 4.0 11.0 0.00 0.00 0.00 88 1005.9
20260506000048 79 179 2.0 11.0 0.00 0.00 0.00 87 1005.9
20260505234550 79 205 3.0 11.0 0.00 0.00 0.00 87 1005.8
20260505233046 79 184 4.0 10.0 0.00 0.00 0.00 87 1006.0
20260505231558 79 213 5.0 12.0 0.00 0.00 0.00 86 1006.0
20260505230055 80 204 4.0 10.0 0.00 0.00 0.00 85 1006.1
20260505224547 80 188 5.0 11.0 0.00 0.00 0.00 84 1005.9
20260505223041 81 222 5.0 15.0 0.00 0.00 0.00 84 1006.1
20260505221541 81 125 4.0 9.0 0.00 0.00 0.00 85 1006.1
20260505220039 80 215 5.0 9.0 0.00 0.00 0.00 86 1006.2
20260505214537 80 200 3.0 10.0 0.00 0.00 0.00 86 1006.5
20260505213044 80 143 3.0 10.0 0.00 0.00 0.00 86 1006.5
20260505211535 81 145 4.0 11.0 0.00 0.00 0.00 85 1006.7
20260505210035 80 194 5.0 11.0 0.00 0.00 0.00 86 1006.8
20260505204531 80 205 3.0 9.0 0.00 0.00 0.00 86 1007.1
20260505203029 81 167 3.0 7.0 0.00 0.00 0.00 85 1007.2
20260505201528 81 188 3.0 10.0 0.00 0.00 0.00 85 1007.5
20260505200029 80 163 5.0 11.0 0.00 0.00 0.00 85 1007.6
20260505194528 81 178 4.0 11.0 0.00 0.00 0.00 85 1007.7
20260505193028 81 188 4.0 12.0 0.00 0.00 0.00 85 1007.7
20260505191527 81 214 2.0 8.0 0.00 0.00 0.00 85 1007.8
20260505190023 80 200 2.0 9.0 0.00 0.00 0.00 86 1007.8
20260505184523 79 155 2.0 10.0 0.00 0.00 0.00 86 1008.0
20260505183032 80 165 2.0 7.0 0.00 0.00 0.00 86 1008.2